Year,Month,Day,Hour,Minute,Value (Times are PST for barometer in hPa)
2015,08,29,00,00,1007.79
2015,08,29,00,01,1007.72
2015,08,29,00,02,1007.72
2015,08,29,00,03,1007.65
2015,08,29,00,04,1007.62
2015,08,29,00,05,1007.65
2015,08,29,00,06,1007.59
2015,08,29,00,07,1007.59
2015,08,29,00,08,1007.52
2015,08,29,00,09,1007.48
2015,08,29,00,10,1007.48
2015,08,29,00,11,1007.45
2015,08,29,00,12,1007.45
2015,08,29,00,13,1007.38
2015,08,29,00,14,1007.38
2015,08,29,00,15,1007.38
2015,08,29,00,16,1007.35
2015,08,29,00,17,1007.32
2015,08,29,00,18,1007.32
2015,08,29,00,19,1007.35
2015,08,29,00,20,1007.25
2015,08,29,00,21,1007.32
2015,08,29,00,22,1007.25
2015,08,29,00,23,1007.25
2015,08,29,00,24,1007.21
2015,08,29,00,25,1007.18
2015,08,29,00,26,1007.15
2015,08,29,00,27,1007.08
2015,08,29,00,28,1007.08
2015,08,29,00,29,1007.08
2015,08,29,00,30,1007.04
2015,08,29,00,31,1007.04
2015,08,29,00,32,1006.98
2015,08,29,00,33,1007.01
2015,08,29,00,34,1007.01
2015,08,29,00,35,1006.98
2015,08,29,00,36,1006.94
2015,08,29,00,37,1006.94
2015,08,29,00,38,1006.94
2015,08,29,00,39,1006.94
2015,08,29,00,40,1006.94
2015,08,29,00,41,1006.91
2015,08,29,00,42,1006.81
2015,08,29,00,43,1006.77
2015,08,29,00,44,1006.77
2015,08,29,00,45,1006.81
2015,08,29,00,46,1006.74
2015,08,29,00,47,1006.74
2015,08,29,00,48,1006.74
2015,08,29,00,49,1006.71
2015,08,29,00,50,1006.74
2015,08,29,00,51,1006.74
2015,08,29,00,52,1006.71
2015,08,29,00,53,1006.71
2015,08,29,00,54,1006.71
2015,08,29,00,55,1006.67
2015,08,29,00,56,1006.71
2015,08,29,00,57,1006.60
2015,08,29,00,58,1006.64
2015,08,29,00,59,1006.64
2015,08,29,01,00,1006.60
2015,08,29,01,01,1006.57
2015,08,29,01,02,1006.57
2015,08,29,01,03,1006.54
2015,08,29,01,04,1006.47
2015,08,29,01,05,1006.47
2015,08,29,01,06,1006.47
2015,08,29,01,07,1006.40
2015,08,29,01,08,1006.40
2015,08,29,01,09,1006.37
2015,08,29,01,10,1006.37
2015,08,29,01,11,1006.37
2015,08,29,01,12,1006.30
2015,08,29,01,13,1006.27
2015,08,29,01,14,1006.23
2015,08,29,01,15,1006.23
2015,08,29,01,16,1006.20
2015,08,29,01,17,1006.13
2015,08,29,01,18,1006.13
2015,08,29,01,19,1006.13
2015,08,29,01,20,1006.06
2015,08,29,01,21,1005.99
2015,08,29,01,22,1005.99
2015,08,29,01,23,1005.96
2015,08,29,01,24,1005.93
2015,08,29,01,25,1005.89
2015,08,29,01,26,1005.89
2015,08,29,01,27,1005.83
2015,08,29,01,28,1005.79
2015,08,29,01,29,1005.83
2015,08,29,01,30,1005.79
2015,08,29,01,31,1005.79
2015,08,29,01,32,1005.79
2015,08,29,01,33,1005.79
2015,08,29,01,34,1005.76
2015,08,29,01,35,1005.72
2015,08,29,01,36,1005.72
2015,08,29,01,37,1005.69
2015,08,29,01,38,1005.62
2015,08,29,01,39,1005.66
2015,08,29,01,40,1005.62
2015,08,29,01,41,1005.59
2015,08,29,01,42,1005.55
2015,08,29,01,43,1005.49
2015,08,29,01,44,1005.45
2015,08,29,01,45,1005.42
2015,08,29,01,46,1005.42
2015,08,29,01,47,1005.42
2015,08,29,01,48,1005.39
2015,08,29,01,49,1005.35
2015,08,29,01,50,1005.32
2015,08,29,01,51,1005.28
2015,08,29,01,52,1005.25
2015,08,29,01,53,1005.18
2015,08,29,01,54,1005.15
2015,08,29,01,55,1005.11
2015,08,29,01,56,1005.08
2015,08,29,01,57,1005.05
2015,08,29,01,58,1005.05
2015,08,29,01,59,1005.05
2015,08,29,02,00,1004.98
2015,08,29,02,01,1004.91
2015,08,29,02,02,1004.95
2015,08,29,02,03,1004.88
2015,08,29,02,04,1004.84
2015,08,29,02,05,1004.81
2015,08,29,02,06,1004.78
2015,08,29,02,07,1004.71
2015,08,29,02,08,1004.71
2015,08,29,02,09,1004.67
2015,08,29,02,10,1004.64
2015,08,29,02,11,1004.61
2015,08,29,02,12,1004.61
2015,08,29,02,13,1004.61
2015,08,29,02,14,1004.57
2015,08,29,02,15,1004.54
2015,08,29,02,16,1004.50
2015,08,29,02,17,1004.44
2015,08,29,02,18,1004.37
2015,08,29,02,19,1004.37
2015,08,29,02,20,1004.37
2015,08,29,02,21,1004.34
2015,08,29,02,22,1004.34
2015,08,29,02,23,1004.30
2015,08,29,02,24,1004.27
2015,08,29,02,25,1004.20
2015,08,29,02,26,1004.17
2015,08,29,02,27,1004.13
2015,08,29,02,28,1004.10
2015,08,29,02,29,1004.10
2015,08,29,02,30,1004.06
2015,08,29,02,31,1004.10
2015,08,29,02,32,1004.06
2015,08,29,02,33,1004.10
2015,08,29,02,34,1004.10
2015,08,29,02,35,1004.10
2015,08,29,02,36,1004.10
2015,08,29,02,37,1004.13
2015,08,29,02,38,1004.10
2015,08,29,02,39,1004.06
2015,08,29,02,40,1004.06
2015,08,29,02,41,1004.06
2015,08,29,02,42,1004.03
2015,08,29,02,43,1004.10
2015,08,29,02,44,1004.06
2015,08,29,02,45,1004.03
2015,08,29,02,46,1004.03
2015,08,29,02,47,1004.06
2015,08,29,02,48,1003.96
2015,08,29,02,49,1003.92
2015,08,29,02,50,1003.79
2015,08,29,02,51,1003.76
2015,08,29,02,52,1003.76
2015,08,29,02,53,1003.76
2015,08,29,02,54,1003.66
2015,08,29,02,55,1003.56
2015,08,29,02,56,1003.46
2015,08,29,02,57,1003.42
2015,08,29,02,58,1003.42
2015,08,29,02,59,1003.49
2015,08,29,03,00,1003.42
2015,08,29,03,01,1003.39
2015,08,29,03,02,1003.42
2015,08,29,03,03,1003.39
2015,08,29,03,04,1003.32
2015,08,29,03,05,1003.25
2015,08,29,03,06,1003.25
2015,08,29,03,07,1003.25
2015,08,29,03,08,1003.25
2015,08,29,03,09,1003.25
2015,08,29,03,10,1003.22
2015,08,29,03,11,1003.15
2015,08,29,03,12,1003.15
2015,08,29,03,13,1003.15
2015,08,29,03,14,1003.12
2015,08,29,03,15,1003.12
2015,08,29,03,16,1003.12
2015,08,29,03,17,1003.08
2015,08,29,03,18,1003.05
2015,08,29,03,19,1003.01
2015,08,29,03,20,1002.95
2015,08,29,03,21,1002.91
2015,08,29,03,22,1002.85
2015,08,29,03,23,1002.81
2015,08,29,03,24,1002.81
2015,08,29,03,25,1002.78
2015,08,29,03,26,1002.78
2015,08,29,03,27,1002.74
2015,08,29,03,28,1002.68
2015,08,29,03,29,1002.74
2015,08,29,03,30,1002.74
2015,08,29,03,31,1002.71
2015,08,29,03,32,1002.68
2015,08,29,03,33,1002.68
2015,08,29,03,34,1002.64
2015,08,29,03,35,1002.61
2015,08,29,03,36,1002.54
2015,08,29,03,37,1002.54
2015,08,29,03,38,1002.51
2015,08,29,03,39,1002.51
2015,08,29,03,40,1002.51
2015,08,29,03,41,1002.54
2015,08,29,03,42,1002.54
2015,08,29,03,43,1002.47
2015,08,29,03,44,1002.44
2015,08,29,03,45,1002.44
2015,08,29,03,46,1002.41
2015,08,29,03,47,1002.37
2015,08,29,03,48,1002.34
2015,08,29,03,49,1002.30
2015,08,29,03,50,1002.34
2015,08,29,03,51,1002.37
2015,08,29,03,52,1002.41
2015,08,29,03,53,1002.34
2015,08,29,03,54,1002.27
2015,08,29,03,55,1002.27
2015,08,29,03,56,1002.20
2015,08,29,03,57,1002.20
2015,08,29,03,58,1002.20
2015,08,29,03,59,1002.17
2015,08,29,04,00,1002.17
2015,08,29,04,01,1002.10
2015,08,29,04,02,1002.07
2015,08,29,04,03,1002.03
2015,08,29,04,04,1002.00
2015,08,29,04,05,1001.97
2015,08,29,04,06,1001.97
2015,08,29,04,07,1001.90
2015,08,29,04,08,1001.86
2015,08,29,04,09,1001.83
2015,08,29,04,10,1001.80
2015,08,29,04,11,1001.80
2015,08,29,04,12,1001.80
2015,08,29,04,13,1001.76
2015,08,29,04,14,1001.73
2015,08,29,04,15,1001.69
2015,08,29,04,16,1001.66
2015,08,29,04,17,1001.66
2015,08,29,04,18,1001.59
2015,08,29,04,19,1001.56
2015,08,29,04,20,1001.49
2015,08,29,04,21,1001.46
2015,08,29,04,22,1001.46
2015,08,29,04,23,1001.42
2015,08,29,04,24,1001.38
2015,08,29,04,25,1001.32
2015,08,29,04,26,1001.28
2015,08,29,04,27,1001.22
2015,08,29,04,28,1001.22
2015,08,29,04,29,1001.19
2015,08,29,04,30,1001.15
2015,08,29,04,31,1001.12
2015,08,29,04,32,1001.12
2015,08,29,04,33,1001.12
2015,08,29,04,34,1001.12
2015,08,29,04,35,1001.08
2015,08,29,04,36,1001.04
2015,08,29,04,37,1000.98
2015,08,29,04,38,1001.02
2015,08,29,04,39,1001.02
2015,08,29,04,40,1001.02
2015,08,29,04,41,1001.02
2015,08,29,04,42,1000.98
2015,08,29,04,43,1000.95
2015,08,29,04,44,1000.98
2015,08,29,04,45,1000.95
2015,08,29,04,46,1000.95
2015,08,29,04,47,1000.92
2015,08,29,04,48,1000.88
2015,08,29,04,49,1000.81
2015,08,29,04,50,1000.75
2015,08,29,04,51,1000.75
2015,08,29,04,52,1000.75
2015,08,29,04,53,1000.75
2015,08,29,04,54,1000.71
2015,08,29,04,55,1000.71
2015,08,29,04,56,1000.68
2015,08,29,04,57,1000.64
2015,08,29,04,58,1000.54
2015,08,29,04,59,1000.54
2015,08,29,05,00,1000.61
2015,08,29,05,01,1000.61
2015,08,29,05,02,1000.61
2015,08,29,05,03,1000.61
2015,08,29,05,04,1000.64
2015,08,29,05,05,1000.51
2015,08,29,05,06,1000.48
2015,08,29,05,07,1000.37
2015,08,29,05,08,1000.34
2015,08,29,05,09,1000.31
2015,08,29,05,10,1000.27
2015,08,29,05,11,1000.20
2015,08,29,05,12,1000.20
2015,08,29,05,13,1000.17
2015,08,29,05,14,1000.17
2015,08,29,05,15,1000.20
2015,08,29,05,16,1000.17
2015,08,29,05,17,1000.24
2015,08,29,05,18,1000.17
2015,08,29,05,19,1000.10
2015,08,29,05,20,1000.13
2015,08,29,05,21,1000.06
2015,08,29,05,22,999.99
2015,08,29,05,23,999.93
2015,08,29,05,24,999.93
2015,08,29,05,25,1000.00
2015,08,29,05,26,1000.03
2015,08,29,05,27,1000.07
2015,08,29,05,28,1000.07
2015,08,29,05,29,1000.03
2015,08,29,05,30,999.99
2015,08,29,05,31,999.92
2015,08,29,05,32,999.83
2015,08,29,05,33,999.76
2015,08,29,05,34,999.70
2015,08,29,05,35,999.66
2015,08,29,05,36,999.66
2015,08,29,05,37,999.66
2015,08,29,05,38,999.70
2015,08,29,05,39,999.66
2015,08,29,05,40,999.63
2015,08,29,05,41,999.56
2015,08,29,05,42,999.53
2015,08,29,05,43,999.53
2015,08,29,05,44,999.49
2015,08,29,05,45,999.56
2015,08,29,05,46,999.56
2015,08,29,05,47,999.53
2015,08,29,05,48,999.46
2015,08,29,05,49,999.43
2015,08,29,05,50,999.36
2015,08,29,05,51,999.32
2015,08,29,05,52,999.31
2015,08,29,05,53,999.22
2015,08,29,05,54,999.19
2015,08,29,05,55,999.19
2015,08,29,05,56,999.15
2015,08,29,05,57,999.12
2015,08,29,05,58,999.12
2015,08,29,05,59,999.09
2015,08,29,06,00,999.12
2015,08,29,06,01,999.05
2015,08,29,06,02,999.05
2015,08,29,06,03,998.99
2015,08,29,06,04,998.99
2015,08,29,06,05,998.95
2015,08,29,06,06,998.95
2015,08,29,06,07,998.99
2015,08,29,06,08,998.95
2015,08,29,06,09,998.92
2015,08,29,06,10,998.85
2015,08,29,06,11,998.85
2015,08,29,06,12,998.82
2015,08,29,06,13,998.71
2015,08,29,06,14,998.71
2015,08,29,06,15,998.61
2015,08,29,06,16,998.54
2015,08,29,06,17,998.51
2015,08,29,06,18,998.48
2015,08,29,06,19,998.48
2015,08,29,06,20,998.41
2015,08,29,06,21,998.38
2015,08,29,06,22,998.41
2015,08,29,06,23,998.41
2015,08,29,06,24,998.41
2015,08,29,06,25,998.44
2015,08,29,06,26,998.44
2015,08,29,06,27,998.38
2015,08,29,06,28,998.34
2015,08,29,06,29,998.27
2015,08,29,06,30,998.24
2015,08,29,06,31,998.21
2015,08,29,06,32,998.21
2015,08,29,06,33,998.15
2015,08,29,06,34,998.21
2015,08,29,06,35,998.21
2015,08,29,06,36,998.17
2015,08,29,06,37,998.20
2015,08,29,06,38,998.07
2015,08,29,06,39,997.97
2015,08,29,06,40,997.94
2015,08,29,06,41,997.90
2015,08,29,06,42,997.90
2015,08,29,06,43,997.90
2015,08,29,06,44,997.90
2015,08,29,06,45,997.86
2015,08,29,06,46,997.77
2015,08,29,06,47,997.77
2015,08,29,06,48,997.70
2015,08,29,06,49,997.66
2015,08,29,06,50,997.70
2015,08,29,06,51,997.66
2015,08,29,06,52,997.73
2015,08,29,06,53,997.70
2015,08,29,06,54,997.66
2015,08,29,06,55,997.66
2015,08,29,06,56,997.60
2015,08,29,06,57,997.60
2015,08,29,06,58,997.56
2015,08,29,06,59,997.56
2015,08,29,07,00,997.50
2015,08,29,07,01,997.50
2015,08,29,07,02,997.46
2015,08,29,07,03,997.39
2015,08,29,07,04,997.29
2015,08,29,07,05,997.29
2015,08,29,07,06,997.29
2015,08,29,07,07,997.22
2015,08,29,07,08,997.19
2015,08,29,07,09,997.18
2015,08,29,07,10,997.12
2015,08,29,07,11,997.09
2015,08,29,07,12,997.05
2015,08,29,07,13,997.05
2015,08,29,07,14,996.98
2015,08,29,07,15,996.92
2015,08,29,07,16,996.89
2015,08,29,07,17,996.89
2015,08,29,07,18,996.89
2015,08,29,07,19,996.85
2015,08,29,07,20,996.78
2015,08,29,07,21,996.75
2015,08,29,07,22,996.72
2015,08,29,07,23,996.68
2015,08,29,07,24,996.68
2015,08,29,07,25,996.61
2015,08,29,07,26,996.58
2015,08,29,07,27,996.68
2015,08,29,07,28,996.65
2015,08,29,07,29,996.58
2015,08,29,07,30,996.58
2015,08,29,07,31,996.58
2015,08,29,07,32,996.55
2015,08,29,07,33,996.48
2015,08,29,07,34,996.45
2015,08,29,07,35,996.41
2015,08,29,07,36,996.38
2015,08,29,07,37,996.38
2015,08,29,07,38,996.41
2015,08,29,07,39,996.48
2015,08,29,07,40,996.48
2015,08,29,07,41,996.41
2015,08,29,07,42,996.28
2015,08,29,07,43,996.24
2015,08,29,07,44,996.28
2015,08,29,07,45,996.21
2015,08,29,07,46,996.21
2015,08,29,07,47,996.16
2015,08,29,07,48,996.03
2015,08,29,07,49,995.90
2015,08,29,07,50,995.86
2015,08,29,07,51,995.80
2015,08,29,07,52,995.77
2015,08,29,07,53,995.77
2015,08,29,07,54,995.67
2015,08,29,07,55,995.63
2015,08,29,07,56,995.53
2015,08,29,07,57,995.53
2015,08,29,07,58,995.46
2015,08,29,07,59,995.40
2015,08,29,08,00,995.46
2015,08,29,08,01,995.57
2015,08,29,08,02,995.70
2015,08,29,08,03,995.73
2015,08,29,08,04,995.73
2015,08,29,08,05,995.70
2015,08,29,08,06,995.67
2015,08,29,08,07,995.67
2015,08,29,08,08,995.63
2015,08,29,08,09,995.67
2015,08,29,08,10,995.70
2015,08,29,08,11,995.62
2015,08,29,08,12,995.46
2015,08,29,08,13,995.40
2015,08,29,08,14,995.33
2015,08,29,08,15,995.29
2015,08,29,08,16,995.27
2015,08,29,08,17,995.43
2015,08,29,08,18,995.43
2015,08,29,08,19,995.42
2015,08,29,08,20,995.33
2015,08,29,08,21,995.26
2015,08,29,08,22,995.23
2015,08,29,08,23,995.26
2015,08,29,08,24,995.23
2015,08,29,08,25,995.26
2015,08,29,08,26,995.33
2015,08,29,08,27,995.40
2015,08,29,08,28,995.40
2015,08,29,08,29,995.40
2015,08,29,08,30,995.43
2015,08,29,08,31,995.33
2015,08,29,08,32,995.43
2015,08,29,08,33,995.46
2015,08,29,08,34,995.46
2015,08,29,08,35,995.50
2015,08,29,08,36,995.53
2015,08,29,08,37,995.53
2015,08,29,08,38,995.60
2015,08,29,08,39,995.63
2015,08,29,08,40,995.67
2015,08,29,08,41,995.63
2015,08,29,08,42,995.56
2015,08,29,08,43,995.53
2015,08,29,08,44,995.50
2015,08,29,08,45,995.50
2015,08,29,08,46,995.50
2015,08,29,08,47,995.50
2015,08,29,08,48,995.46
2015,08,29,08,49,995.43
2015,08,29,08,50,995.43
2015,08,29,08,51,995.40
2015,08,29,08,52,995.50
2015,08,29,08,53,995.42
2015,08,29,08,54,995.36
2015,08,29,08,55,995.36
2015,08,29,08,56,995.33
2015,08,29,08,57,995.36
2015,08,29,08,58,995.40
2015,08,29,08,59,995.40
2015,08,29,09,00,995.43
2015,08,29,09,01,995.43
2015,08,29,09,02,995.40
2015,08,29,09,03,995.33
2015,08,29,09,04,995.33
2015,08,29,09,05,995.36
2015,08,29,09,06,995.36
2015,08,29,09,07,995.36
2015,08,29,09,08,995.36
2015,08,29,09,09,995.43
2015,08,29,09,10,995.40
2015,08,29,09,11,995.36
2015,08,29,09,12,995.33
2015,08,29,09,13,995.33
2015,08,29,09,14,995.29
2015,08,29,09,15,995.33
2015,08,29,09,16,995.23
2015,08,29,09,17,995.29
2015,08,29,09,18,995.23
2015,08,29,09,19,995.23
2015,08,29,09,20,995.23
2015,08,29,09,21,995.26
2015,08,29,09,22,995.36
2015,08,29,09,23,995.40
2015,08,29,09,24,995.33
2015,08,29,09,25,995.36
2015,08,29,09,26,995.36
2015,08,29,09,27,995.43
2015,08,29,09,28,995.40
2015,08,29,09,29,995.33
2015,08,29,09,30,995.33
2015,08,29,09,31,995.43
2015,08,29,09,32,995.43
2015,08,29,09,33,995.36
2015,08,29,09,34,995.36
2015,08,29,09,35,995.43
2015,08,29,09,36,995.40
2015,08,29,09,37,995.40
2015,08,29,09,38,995.33
2015,08,29,09,39,995.36
2015,08,29,09,40,995.43
2015,08,29,09,41,995.40
2015,08,29,09,42,995.40
2015,08,29,09,43,995.33
2015,08,29,09,44,995.36
2015,08,29,09,45,995.40
2015,08,29,09,46,995.43
2015,08,29,09,47,995.36
2015,08,29,09,48,995.50
2015,08,29,09,49,995.43
2015,08,29,09,50,995.43
2015,08,29,09,51,995.43
2015,08,29,09,52,995.43
2015,08,29,09,53,995.46
2015,08,29,09,54,995.46
2015,08,29,09,55,995.40
2015,08,29,09,56,995.36
2015,08,29,09,57,995.40
2015,08,29,09,58,995.36
2015,08,29,09,59,995.33
2015,08,29,10,00,995.33
2015,08,29,10,01,995.36
2015,08,29,10,02,995.36
2015,08,29,10,03,995.36
2015,08,29,10,04,995.36
2015,08,29,10,05,995.33
2015,08,29,10,06,995.33
2015,08,29,10,07,995.33
2015,08,29,10,08,995.29
2015,08,29,10,09,995.33
2015,08,29,10,10,995.40
2015,08,29,10,11,995.29
2015,08,29,10,12,995.36
2015,08,29,10,13,995.29
2015,08,29,10,14,995.29
2015,08,29,10,15,995.33
2015,08,29,10,16,995.33
2015,08,29,10,17,995.33
2015,08,29,10,18,995.36
2015,08,29,10,19,995.33
2015,08,29,10,20,995.33
2015,08,29,10,21,995.33
2015,08,29,10,22,995.33
2015,08,29,10,23,995.36
2015,08,29,10,24,995.33
2015,08,29,10,25,995.40
2015,08,29,10,26,995.33
2015,08,29,10,27,995.33
2015,08,29,10,28,995.26
2015,08,29,10,29,995.23
2015,08,29,10,30,995.26
2015,08,29,10,31,995.12
2015,08,29,10,32,995.06
2015,08,29,10,33,995.06
2015,08,29,10,34,995.09
2015,08,29,10,35,995.06
2015,08,29,10,36,995.06
2015,08,29,10,37,995.12
2015,08,29,10,38,995.19
2015,08,29,10,39,995.19
2015,08,29,10,40,995.23
2015,08,29,10,41,995.29
2015,08,29,10,42,995.26
2015,08,29,10,43,995.29
2015,08,29,10,44,995.36
2015,08,29,10,45,995.36
2015,08,29,10,46,995.36
2015,08,29,10,47,995.29
2015,08,29,10,48,995.29
2015,08,29,10,49,995.19
2015,08,29,10,50,995.29
2015,08,29,10,51,995.26
2015,08,29,10,52,995.29
2015,08,29,10,53,995.23
2015,08,29,10,54,995.29
2015,08,29,10,55,995.26
2015,08,29,10,56,995.23
2015,08,29,10,57,995.23
2015,08,29,10,58,995.29
2015,08,29,10,59,995.40
2015,08,29,11,00,995.40
2015,08,29,11,01,995.46
2015,08,29,11,02,995.43
2015,08,29,11,03,995.46
2015,08,29,11,04,995.56
2015,08,29,11,05,995.63
2015,08,29,11,06,995.70
2015,08,29,11,07,995.73
2015,08,29,11,08,995.77
2015,08,29,11,09,995.80
2015,08,29,11,10,995.84
2015,08,29,11,11,995.77
2015,08,29,11,12,995.80
2015,08,29,11,13,995.84
2015,08,29,11,14,995.87
2015,08,29,11,15,995.84
2015,08,29,11,16,995.87
2015,08,29,11,17,995.90
2015,08,29,11,18,995.94
2015,08,29,11,19,995.94
2015,08,29,11,20,995.94
2015,08,29,11,21,996.01
2015,08,29,11,22,995.97
2015,08,29,11,23,996.01
2015,08,29,11,24,995.90
2015,08,29,11,25,995.90
2015,08,29,11,26,995.87
2015,08,29,11,27,995.80
2015,08,29,11,28,995.77
2015,08,29,11,29,995.73
2015,08,29,11,30,995.67
2015,08,29,11,31,995.60
2015,08,29,11,32,995.56
2015,08,29,11,33,995.53
2015,08,29,11,34,995.46
2015,08,29,11,35,995.50
2015,08,29,11,36,995.43
2015,08,29,11,37,995.46
2015,08,29,11,38,995.52
2015,08,29,11,39,995.36
2015,08,29,11,40,995.36
2015,08,29,11,41,995.29
2015,08,29,11,42,995.23
2015,08,29,11,43,995.19
2015,08,29,11,44,995.23
2015,08,29,11,45,995.23
2015,08,29,11,46,995.12
2015,08,29,11,47,995.16
2015,08,29,11,48,995.09
2015,08,29,11,49,995.02
2015,08,29,11,50,995.02
2015,08,29,11,51,994.99
2015,08,29,11,52,994.92
2015,08,29,11,53,994.89
2015,08,29,11,54,994.85
2015,08,29,11,55,994.82
2015,08,29,11,56,994.89
2015,08,29,11,57,994.99
2015,08,29,11,58,995.02
2015,08,29,11,59,995.09
2015,08,29,12,00,995.06
2015,08,29,12,01,995.12
2015,08,29,12,02,995.16
2015,08,29,12,03,995.12
2015,08,29,12,04,995.09
2015,08,29,12,05,995.16
2015,08,29,12,06,995.16
2015,08,29,12,07,995.16
2015,08,29,12,08,995.18
2015,08,29,12,09,995.06
2015,08,29,12,10,995.06
2015,08,29,12,11,994.99
2015,08,29,12,12,995.02
2015,08,29,12,13,994.99
2015,08,29,12,14,995.12
2015,08,29,12,15,995.12
2015,08,29,12,16,995.19
2015,08,29,12,17,995.19
2015,08,29,12,18,995.23
2015,08,29,12,19,995.19
2015,08,29,12,20,995.19
2015,08,29,12,21,995.16
2015,08,29,12,22,995.09
2015,08,29,12,23,995.09
2015,08,29,12,24,995.09
2015,08,29,12,25,995.09
2015,08,29,12,26,995.02
2015,08,29,12,27,995.09
2015,08,29,12,28,995.02
2015,08,29,12,29,995.02
2015,08,29,12,30,995.06
2015,08,29,12,31,995.02
2015,08,29,12,32,995.09
2015,08,29,12,33,995.06
2015,08,29,12,34,995.06
2015,08,29,12,35,994.99
2015,08,29,12,36,994.99
2015,08,29,12,37,995.05
2015,08,29,12,38,994.85
2015,08,29,12,39,994.92
2015,08,29,12,40,994.92
2015,08,29,12,41,994.99
2015,08,29,12,42,995.06
2015,08,29,12,43,995.07
2015,08,29,12,44,995.19
2015,08,29,12,45,995.23
2015,08,29,12,46,995.26
2015,08,29,12,47,995.23
2015,08,29,12,48,995.23
2015,08,29,12,49,995.29
2015,08,29,12,50,995.29
2015,08,29,12,51,995.26
2015,08,29,12,52,995.19
2015,08,29,12,53,995.12
2015,08,29,12,54,995.16
2015,08,29,12,55,995.12
2015,08,29,12,56,995.09
2015,08,29,12,57,995.09
2015,08,29,12,58,995.02
2015,08,29,12,59,995.09
2015,08,29,13,00,995.06
2015,08,29,13,01,995.09
2015,08,29,13,02,995.03
2015,08,29,13,03,995.16
2015,08,29,13,04,995.16
2015,08,29,13,05,995.12
2015,08,29,13,06,995.09
2015,08,29,13,07,994.96
2015,08,29,13,08,994.96
2015,08,29,13,09,994.99
2015,08,29,13,10,994.99
2015,08,29,13,11,994.92
2015,08,29,13,12,994.99
2015,08,29,13,13,994.96
2015,08,29,13,14,994.99
2015,08,29,13,15,994.99
2015,08,29,13,16,994.99
2015,08,29,13,17,994.96
2015,08,29,13,18,994.99
2015,08,29,13,19,995.02
2015,08,29,13,20,995.02
2015,08,29,13,21,995.02
2015,08,29,13,22,995.02
2015,08,29,13,23,995.09
2015,08,29,13,24,995.06
2015,08,29,13,25,995.06
2015,08,29,13,26,995.06
2015,08,29,13,27,994.99
2015,08,29,13,28,994.99
2015,08,29,13,29,994.96
2015,08,29,13,30,994.89
2015,08,29,13,31,994.92
2015,08,29,13,32,994.89
2015,08,29,13,33,994.89
2015,08,29,13,34,994.89
2015,08,29,13,35,994.85
2015,08,29,13,36,994.85
2015,08,29,13,37,994.85
2015,08,29,13,38,994.79
2015,08,29,13,39,994.68
2015,08,29,13,40,994.68
2015,08,29,13,41,994.62
2015,08,29,13,42,994.55
2015,08,29,13,43,994.52
2015,08,29,13,44,994.55
2015,08,29,13,45,994.55
2015,08,29,13,46,994.55
2015,08,29,13,47,994.55
2015,08,29,13,48,994.52
2015,08,29,13,49,994.52
2015,08,29,13,50,994.52
2015,08,29,13,51,994.52
2015,08,29,13,52,994.55
2015,08,29,13,53,994.52
2015,08,29,13,54,994.55
2015,08,29,13,55,994.52
2015,08,29,13,56,994.55
2015,08,29,13,57,994.52
2015,08,29,13,58,994.55
2015,08,29,13,59,994.55
2015,08,29,14,00,994.62
2015,08,29,14,01,994.58
2015,08,29,14,02,994.58
2015,08,29,14,03,994.58
2015,08,29,14,04,994.68
2015,08,29,14,05,994.72
2015,08,29,14,06,994.75
2015,08,29,14,07,994.76
2015,08,29,14,08,994.89
2015,08,29,14,09,994.96
2015,08,29,14,10,994.99
2015,08,29,14,11,995.06
2015,08,29,14,12,995.16
2015,08,29,14,13,995.23
2015,08,29,14,14,995.26
2015,08,29,14,15,995.33
2015,08,29,14,16,995.43
2015,08,29,14,17,995.50
2015,08,29,14,18,995.60
2015,08,29,14,19,995.67
2015,08,29,14,20,995.77
2015,08,29,14,21,995.80
2015,08,29,14,22,995.84
2015,08,29,14,23,995.94
2015,08,29,14,24,995.90
2015,08,29,14,25,996.01
2015,08,29,14,26,996.04
2015,08,29,14,27,996.14
2015,08,29,14,28,996.14
2015,08,29,14,29,996.25
2015,08,29,14,30,996.41
2015,08,29,14,31,996.48
2015,08,29,14,32,996.55
2015,08,29,14,33,996.58
2015,08,29,14,34,996.58
2015,08,29,14,35,996.58
2015,08,29,14,36,996.65
2015,08,29,14,37,996.75
2015,08,29,14,38,996.85
2015,08,29,14,39,996.95
2015,08,29,14,40,996.99
2015,08,29,14,41,997.09
2015,08,29,14,42,997.02
2015,08,29,14,43,997.09
2015,08,29,14,44,997.09
2015,08,29,14,45,997.16
2015,08,29,14,46,997.19
2015,08,29,14,47,997.19
2015,08,29,14,48,997.22
2015,08,29,14,49,997.26
2015,08,29,14,50,997.26
2015,08,29,14,51,997.26
2015,08,29,14,52,997.29
2015,08,29,14,53,997.36
2015,08,29,14,54,997.36
2015,08,29,14,55,997.43
2015,08,29,14,56,997.46
2015,08,29,14,57,997.56
2015,08,29,14,58,997.60
2015,08,29,14,59,997.66
2015,08,29,15,00,997.77
2015,08,29,15,01,997.83
2015,08,29,15,02,997.90
2015,08,29,15,03,998.00
2015,08,29,15,04,998.00
2015,08,29,15,05,998.10
2015,08,29,15,06,998.10
2015,08,29,15,07,998.04
2015,08,29,15,08,998.14
2015,08,29,15,09,998.17
2015,08,29,15,10,998.24
2015,08,29,15,11,998.17
2015,08,29,15,12,998.10
2015,08,29,15,13,998.00
2015,08,29,15,14,998.07
2015,08,29,15,15,998.10
2015,08,29,15,16,998.10
2015,08,29,15,17,998.00
2015,08,29,15,18,997.94
2015,08,29,15,19,997.90
2015,08,29,15,20,997.94
2015,08,29,15,21,997.90
2015,08,29,15,22,997.97
2015,08,29,15,23,998.00
2015,08,29,15,24,998.01
2015,08,29,15,25,998.14
2015,08,29,15,26,998.17
2015,08,29,15,27,998.21
2015,08,29,15,28,998.27
2015,08,29,15,29,998.34
2015,08,29,15,30,998.38
2015,08,29,15,31,998.34
2015,08,29,15,32,998.34
2015,08,29,15,33,998.31
2015,08,29,15,34,998.39
2015,08,29,15,35,998.51
2015,08,29,15,36,998.61
2015,08,29,15,37,998.61
2015,08,29,15,38,998.65
2015,08,29,15,39,998.75
2015,08,29,15,40,998.82
2015,08,29,15,41,998.82
2015,08,29,15,42,998.82
2015,08,29,15,43,998.88
2015,08,29,15,44,998.92
2015,08,29,15,45,998.99
2015,08,29,15,46,998.88
2015,08,29,15,47,998.85
2015,08,29,15,48,998.82
2015,08,29,15,49,998.82
2015,08,29,15,50,998.85
2015,08,29,15,51,998.85
2015,08,29,15,52,998.85
2015,08,29,15,53,998.75
2015,08,29,15,54,998.82
2015,08,29,15,55,998.88
2015,08,29,15,56,998.99
2015,08,29,15,57,999.05
2015,08,29,15,58,999.02
2015,08,29,15,59,999.05
2015,08,29,16,00,999.05
2015,08,29,16,01,999.12
2015,08,29,16,02,999.19
2015,08,29,16,03,999.26
2015,08,29,16,04,999.39
2015,08,29,16,05,999.43
2015,08,29,16,06,999.39
2015,08,29,16,07,999.46
2015,08,29,16,08,999.59
2015,08,29,16,09,999.73
2015,08,29,16,10,999.80
2015,08,29,16,11,999.83
2015,08,29,16,12,999.93
2015,08,29,16,13,999.97
2015,08,29,16,14,1000.07
2015,08,29,16,15,1000.04
2015,08,29,16,16,1000.17
2015,08,29,16,17,1000.24
2015,08,29,16,18,1000.31
2015,08,29,16,19,1000.24
2015,08,29,16,20,1000.31
2015,08,29,16,21,1000.27
2015,08,29,16,22,1000.27